Location: Killam
(52.7910°N, 111.8608°W)
Time: 07:07:54
(UTC+00:00)

METEOR M2 - Pass Details

Date: 20 March 2026
Orbit: 817 x 824 km, 98.5° (Epoch: 14 April)

Event Time Altitude Azimuth Distance (km) Brightness Sun altitude
Rises 11:21:17 0° 19° (NNE) 3,375 ? -19.5°
Reaches altitude 10° 11:23:47 10° 26° (NNE) 2,437 ? -19.2°
Maximum altitude 11:28:54 43° 97° (E) 1,154 ? -18.5°
Drops below altitude 10° 11:33:59 10° 169° (SSE) 2,419 ? -17.8°
Sets 11:36:26 0° 176° (S) 3,346 ? -17.4°
